Retour au catalogue

FENGYUN 1C DEB

ActifPO
NORAD 30082·DEBRIS·🇨🇳 China

Lancé May 10, 1999 depuis Taiyuan Satellite Launch Center

Loading…

Prochains Passages (prochaines 24 heures)

TLE

FraisSource: Space-Track

Époque: Sep 14, 2026, 09:16 UTC

1 30082U 99025QK  26257.38660117  .00035165  00000-0  10198-2 0  9993
2 30082  98.8361 239.1482 0043170 314.6034  45.1685 15.34517866 54942

Suivez FENGYUN 1C DEB en temps réel avec AllMySat

Download on the App Store